�N����,����,�~����,�C��,���x,�C��,����,���ϕ���,�ő�u�ԕ���,�ő厞����,���˗�,�I�_���x,�n�����x,�ő啗���N��,DTYPE
"17/08/18","00:10",0.0,26.3,88.4,1002.4,319.3,0.6,1.4,327.6,0.00,24.3,27.3,"00:09:20",1
"17/08/18","00:20",0.0,26.2,88.5,1002.2,326.5,0.6,1.2,297.6,0.00,24.2,27.3,"00:10:08",1
"17/08/18","00:30",0.0,26.2,88.6,1001.9,320.8,0.8,1.8,345.3,0.00,24.2,27.2,"00:27:28",1
"17/08/18","00:40",0.0,26.1,88.3,1001.9,332.9,1.0,1.7,343.8,0.00,24.1,27.1,"00:35:12",1
"17/08/18","00:50",0.0,26.1,88.1,1002.4,285.9,0.7,1.0,269.2,0.00,24.0,27.0,"00:44:48",1
"17/08/18","01:00",0.0,25.9,87.5,1002.2,326.7,0.8,1.8,342.5,0.00,23.7,27.1,"00:58:40",1
"17/08/18","01:10",0.0,26.0,87.6,1002.2,315.9,0.7,1.1,327.4,0.00,23.8,27.1,"01:00:40",1
"17/08/18","01:20",0.0,25.9,87.3,1002.2,302.9,0.5,1.0,315.8,0.00,23.7,27.0,"01:18:40",1
"17/08/18","01:30",0.0,25.8,87.2,1001.9,296.2,0.3,0.9,336.2,0.00,23.5,26.8,"01:20:32",1
"17/08/18","01:40",0.0,25.5,88.1,1001.9,331.8,0.6,1.0,343.8,0.00,23.4,27.2,"01:36:08",1
"17/08/18","01:50",0.0,25.4,88.4,1002.2,317.9,0.7,1.1,293.5,0.00,23.4,27.0,"01:49:04",1
"17/08/18","02:00",0.0,25.5,88.4,1002.2,325.3,1.1,2.1,337.4,0.00,23.5,26.9,"01:56:32",1
"17/08/18","02:10",0.0,25.5,88.4,1002.2,325.9,0.6,1.6,344.0,0.00,23.5,27.0,"02:06:16",1
"17/08/18","02:20",0.0,25.6,88.6,1002.2,344.1,0.3,1.3,347.7,0.00,23.6,26.7,"02:12:40",1
"17/08/18","02:30",0.0,25.5,89.0,1001.9,149.2,0.1,0.4,203.4,0.00,23.6,26.7,"02:20:08",1
"17/08/18","02:40",0.0,25.3,89.2,1001.7,281.3,0.0,0.3,309.7,0.00,23.4,26.8,"02:30:16",1
"17/08/18","02:50",0.0,25.1,89.1,1001.7,312.7,0.5,1.2,345.4,0.00,23.2,26.7,"02:45:28",1
"17/08/18","03:00",0.0,25.2,89.6,1001.9,317.8,0.3,1.1,306.1,0.00,23.4,26.7,"02:59:44",1
"17/08/18","03:10",0.0,25.2,89.9,1002.2,310.1,0.7,1.0,306.5,0.00,23.5,26.4,"03:01:12",1
"17/08/18","03:20",0.0,25.1,90.0,1002.2,301.1,0.7,1.7,331.4,0.00,23.4,26.7,"03:13:36",1
"17/08/18","03:30",0.0,25.2,89.9,1001.9,266.4,0.3,1.0,230.1,0.00,23.5,26.7,"03:22:24",1
"17/08/18","03:40",0.0,25.2,89.8,1001.7,324.4,0.6,1.1,342.3,0.00,23.4,26.7,"03:35:20",1
"17/08/18","03:50",0.0,25.2,89.7,1002.6,314.6,0.6,1.1,306.7,0.00,23.4,26.6,"03:48:16",1
"17/08/18","04:00",0.0,25.2,90.0,1002.4,318.2,0.7,1.6,343.2,0.00,23.5,26.6,"03:58:40",1
"17/08/18","04:10",0.0,25.2,90.2,1002.2,328.1,0.6,1.2,337.7,0.00,23.5,26.6,"04:00:16",1
"17/08/18","04:20",0.0,25.1,90.5,1002.2,326.0,0.6,0.9,309.7,0.00,23.5,26.4,"04:13:20",1
"17/08/18","04:30",0.0,25.1,90.7,1002.2,296.9,0.6,1.0,356.5,0.00,23.5,26.4,"04:22:16",1
"17/08/18","04:40",0.0,25.0,90.5,1002.4,266.0,0.7,1.2,238.8,0.00,23.4,26.4,"04:32:08",1
"17/08/18","04:50",0.0,25.0,90.5,1001.9,330.5,0.7,1.6,344.4,0.00,23.4,26.5,"04:49:04",1
"17/08/18","05:00",0.0,25.1,90.6,1002.4,341.4,0.6,1.1,347.3,0.00,23.5,26.4,"04:50:48",1
"17/08/18","05:10",0.0,25.1,90.6,1002.6,280.4,0.6,1.0,316.0,0.00,23.5,26.3,"05:06:32",1
"17/08/18","05:20",0.0,25.1,90.5,1002.6,322.2,0.6,1.3,326.4,0.00,23.5,26.5,"05:17:36",1
"17/08/18","05:30",0.0,25.2,90.8,1002.6,345.2,0.7,1.4,349.5,0.00,23.6,26.4,"05:24:24",1
"17/08/18","05:40",0.0,25.2,90.8,1002.4,32.6,0.5,0.9,245.3,0.00,23.6,26.5,"05:37:52",1
"17/08/18","05:50",0.0,25.1,91.0,1002.6,321.7,0.6,1.0,308.5,0.00,23.6,26.3,"05:41:36",1
"17/08/18","06:00",0.0,25.2,91.0,1003.4,278.1,0.6,1.1,322.6,0.00,23.7,26.3,"05:53:04",1
"17/08/18","06:10",0.0,25.3,90.6,1002.9,294.0,0.6,1.3,249.1,0.00,23.7,26.4,"06:00:40",1
"17/08/18","06:20",0.0,25.3,90.4,1003.4,328.6,1.0,2.0,342.2,0.00,23.7,26.3,"06:16:16",1
"17/08/18","06:30",0.0,25.4,90.4,1002.2,321.8,0.6,1.7,333.5,0.00,23.8,26.3,"06:20:24",1
"17/08/18","06:40",2.4,25.3,90.7,1003.1,276.6,0.7,1.6,302.7,0.00,23.7,26.2,"06:37:36",1
"17/08/18","06:50",3.6,25.1,91.4,1003.1,332.6,1.3,3.1,329.2,0.00,23.6,26.2,"06:46:02",1
"17/08/18","07:00",2.0,24.9,92.0,1003.8,106.9,0.3,1.2,131.7,0.00,23.5,26.4,"06:58:00",1
"17/08/18","07:10",0.4,24.9,92.7,1004.1,193.0,0.6,1.4,226.9,0.00,23.7,26.2,"07:02:00",1
"17/08/18","07:20",0.2,25.0,93.0,1003.4,65.0,0.7,1.8,17.4,0.00,23.8,26.2,"07:14:40",1
"17/08/18","07:30",0.2,25.0,93.3,1003.8,43.6,0.5,1.3,19.1,0.00,23.9,26.2,"07:24:00",1
"17/08/18","07:40",0.0,25.0,93.5,1004.3,144.4,0.1,0.9,208.7,0.00,23.9,26.1,"07:39:20",1
"17/08/18","07:50",0.0,25.0,93.7,1004.1,283.8,0.6,1.4,182.2,0.00,24.0,26.2,"07:41:20",1
"17/08/18","08:00",0.0,25.0,93.8,1003.8,330.4,0.6,1.3,342.9,0.00,24.0,26.1,"07:58:16",1
"17/08/18","08:10",0.0,24.7,93.5,1003.8,331.0,0.5,2.2,335.7,0.00,23.6,26.2,"08:01:44",1
"17/08/18","08:20",0.0,24.5,93.8,1004.1,287.0,0.3,1.0,24.5,0.00,23.5,26.1,"08:11:52",1
"17/08/18","08:30",0.0,24.6,93.7,1004.1,285.3,0.1,0.9,339.1,0.00,23.6,25.9,"08:20:02",1
"17/08/18","08:40",0.0,24.3,93.6,1004.3,317.4,0.7,1.8,351.8,0.02,23.2,25.9,"08:38:40",1
"17/08/18","08:50",0.0,24.3,93.7,1004.3,256.1,0.5,1.3,338.6,0.04,23.3,26.0,"08:41:04",1
"17/08/18","09:00",0.0,24.7,93.4,1004.5,210.9,0.6,1.4,212.1,0.13,23.6,26.2,"08:53:20",1
"17/08/18","09:10",0.0,26.0,89.1,1004.3,218.9,0.8,2.2,230.0,0.35,24.1,26.1,"09:02:48",1
"17/08/18","09:20",0.0,27.0,86.1,1004.5,150.1,0.5,1.6,106.2,0.28,24.5,26.3,"09:16:48",1
"17/08/18","09:30",0.0,27.1,85.8,1003.8,158.6,1.1,1.8,170.4,0.38,24.6,26.3,"09:24:24",1
"17/08/18","09:40",0.0,27.8,86.0,1003.8,148.4,1.0,2.1,143.9,0.39,25.3,26.6,"09:31:12",1
"17/08/18","09:50",0.0,28.0,82.4,1003.8,139.9,1.1,2.2,145.3,0.41,24.8,26.7,"09:49:36",1
"17/08/18","10:00",0.0,28.3,79.9,1004.1,136.5,0.7,1.8,113.2,0.42,24.5,27.0,"09:57:52",1
"17/08/18","10:10",0.0,28.7,79.8,1004.3,138.3,1.1,2.4,212.3,0.41,24.9,27.2,"10:06:16",1
"17/08/18","10:20",0.0,29.5,79.5,1004.3,149.4,1.0,2.5,202.7,0.48,25.6,27.2,"10:13:44",1
"17/08/18","10:30",0.0,29.7,79.4,1004.5,142.7,1.1,2.6,197.1,0.45,25.8,27.5,"10:21:20",1
"17/08/18","10:40",0.0,28.7,78.8,1004.8,157.7,1.0,2.7,188.3,0.28,24.7,27.5,"10:37:44",1
"17/08/18","10:50",0.0,28.5,80.3,1005.0,179.0,1.3,2.9,202.0,0.20,24.8,27.7,"10:46:48",1
"17/08/18","11:00",0.0,28.3,80.8,1004.1,157.6,1.0,1.8,146.9,0.09,24.7,27.7,"10:54:08",1
"17/08/18","11:10",0.2,28.6,80.3,1003.8,182.8,1.0,2.5,185.6,0.15,24.9,27.9,"11:05:28",1
"17/08/18","11:20",0.0,29.1,78.6,1003.8,158.0,1.1,2.5,158.9,0.25,25.0,28.1,"11:12:40",1
"17/08/18","11:30",0.0,28.9,79.5,1003.1,188.5,0.7,1.8,217.4,0.07,25.0,28.0,"11:25:52",1
"17/08/18","11:40",0.0,30.2,78.1,1003.6,276.4,0.3,1.2,323.6,0.33,26.0,28.0,"11:30:02",1
"17/08/18","11:50",0.0,30.9,73.6,1003.8,15.8,0.5,1.4,125.1,0.36,25.7,28.1,"11:44:56",1
"17/08/18","12:00",0.0,30.1,76.7,1003.4,56.4,0.7,2.0,37.7,0.10,25.6,28.1,"11:58:56",1
"17/08/18","12:10",0.0,30.4,74.6,1003.6,98.0,1.2,2.9,214.7,0.31,25.4,28.3,"12:08:56",1
"17/08/18","12:20",0.0,30.1,76.7,1003.4,184.0,1.2,2.7,153.2,0.17,25.6,28.4,"12:10:56",1
"17/08/18","12:30",0.0,31.0,73.6,1003.1,193.9,1.6,3.5,183.3,0.40,25.8,28.4,"12:29:44",1
"17/08/18","12:40",0.0,31.7,73.1,1003.8,184.6,2.0,3.7,203.7,0.58,26.3,28.7,"12:31:52",1
"17/08/18","12:50",0.0,32.4,69.9,1003.8,179.6,2.0,3.9,188.0,0.60,26.2,29.1,"12:42:16",1
"17/08/18","13:00",0.0,32.6,69.7,1003.8,160.7,1.5,2.8,163.0,0.57,26.4,29.2,"12:54:48",1
"17/08/18","13:10",0.0,31.2,71.5,1004.1,162.7,2.0,3.9,213.1,0.35,25.5,29.4,"13:07:34",1
"17/08/18","13:20",0.0,30.7,73.3,1003.4,173.8,1.8,4.1,196.3,0.09,25.4,29.2,"13:14:56",1
"17/08/18","13:30",0.0,31.5,69.2,1003.1,187.9,2.2,3.9,192.5,0.28,25.2,29.6,"13:22:16",1
"17/08/18","13:40",0.0,30.6,72.1,1002.6,174.7,1.6,3.4,202.7,0.08,25.0,29.4,"13:39:20",1
"17/08/18","13:50",0.0,30.7,72.4,1002.4,186.5,1.8,3.4,223.3,0.09,25.2,29.4,"13:47:04",1
"17/08/18","14:00",0.0,30.9,72.7,1001.7,180.3,1.7,4.1,197.9,0.13,25.5,29.5,"13:51:04",1
"17/08/18","14:10",0.0,30.6,72.1,1001.9,166.4,1.7,3.1,203.0,0.11,25.0,29.2,"14:06:16",1
"17/08/18","14:20",0.0,30.9,72.8,1001.9,179.1,2.1,3.9,221.2,0.14,25.5,29.2,"14:14:16",1
"17/08/18","14:30",0.0,31.8,68.2,1002.2,186.5,1.7,3.5,208.1,0.32,25.2,29.5,"14:25:44",1
"17/08/18","14:40",0.0,31.2,69.4,1001.9,172.7,1.6,3.3,221.4,0.08,25.0,29.1,"14:37:04",1
"17/08/18","14:50",0.0,32.0,67.5,1001.7,170.7,1.7,3.3,198.7,0.26,25.3,29.0,"14:45:12",1
"17/08/18","15:00",0.0,33.5,62.9,1002.4,199.5,1.6,3.5,197.1,0.44,25.5,29.2,"14:59:04",1
"17/08/18","15:10",0.0,34.3,61.4,1002.9,221.8,1.2,3.1,218.3,0.44,25.8,29.4,"15:02:24",1
"17/08/18","15:20",0.0,33.5,62.3,1002.9,181.8,2.2,4.3,184.8,0.38,25.3,29.4,"15:19:28",1
"17/08/18","15:30",0.0,33.9,64.2,1002.9,186.2,2.2,4.8,227.0,0.43,26.2,29.5,"15:22:24",1
"17/08/18","15:40",0.0,32.7,64.8,1002.6,204.0,2.8,5.1,213.8,0.33,25.2,29.8,"15:31:12",1
"17/08/18","15:50",0.0,33.3,62.8,1002.6,187.9,2.5,4.1,193.5,0.37,25.3,29.8,"15:42:56",1
"17/08/18","16:00",0.0,33.6,64.2,1002.9,168.2,1.7,3.1,218.6,0.35,25.9,29.8,"15:51:20",1
"17/08/18","16:10",0.0,33.0,64.3,1002.2,182.5,2.0,3.4,200.1,0.17,25.4,29.7,"16:04:32",1
"17/08/18","16:20",0.0,33.3,63.1,1002.2,177.1,2.3,4.3,182.8,0.28,25.4,29.9,"16:14:08",1
"17/08/18","16:30",0.0,32.7,62.4,1001.9,171.9,2.5,4.7,194.6,0.17,24.6,29.8,"16:22:00",1
"17/08/18","16:40",0.0,32.0,63.8,1001.7,193.3,2.6,4.5,222.9,0.06,24.3,29.8,"16:38:08",1
"17/08/18","16:50",0.0,31.6,65.3,1001.5,185.1,1.8,3.7,220.8,0.03,24.3,29.6,"16:43:28",1
"17/08/18","17:00",0.0,31.3,66.1,1001.5,191.8,1.7,4.4,209.3,0.01,24.3,29.6,"16:55:12",1
"17/08/18","17:10",0.0,31.3,67.3,1001.5,211.3,1.1,2.8,208.5,0.02,24.6,29.8,"17:03:52",1
"17/08/18","17:20",0.0,31.0,69.0,1001.7,276.0,0.5,1.4,193.4,0.00,24.7,29.4,"17:12:24",1
"17/08/18","17:30",0.0,30.6,69.5,1001.0,225.0,0.5,2.7,224.6,0.00,24.4,29.2,"17:27:10",1
"17/08/18","17:40",0.0,30.2,75.2,1001.5,329.0,1.0,2.7,345.5,0.00,25.4,29.4,"17:37:54",1
"17/08/18","17:50",0.0,29.7,77.5,1001.0,0.8,0.5,1.7,350.7,0.00,25.4,29.3,"17:49:44",1
"17/08/18","18:00",0.0,29.3,78.2,1001.0,338.8,0.8,1.6,342.0,0.00,25.1,29.2,"17:50:24",1
"17/08/18","18:10",0.0,29.1,78.2,1000.8,322.2,0.3,1.2,356.4,0.00,25.0,29.2,"18:01:04",1
"17/08/18","18:20",0.0,29.0,78.3,1000.8,265.7,0.7,1.8,237.9,0.00,24.9,29.1,"18:17:20",1
"17/08/18","18:30",0.0,28.9,78.4,1001.0,255.7,0.7,2.0,230.9,0.00,24.8,29.1,"18:21:52",1
"17/08/18","18:40",0.0,28.8,78.5,1001.7,285.4,1.1,3.3,243.7,0.00,24.7,29.0,"18:30:48",1
"17/08/18","18:50",0.0,28.1,80.0,1001.7,284.1,1.3,3.4,291.1,0.00,24.4,28.9,"18:46:40",1
"17/08/18","19:00",0.0,27.6,80.5,1002.2,298.6,1.6,3.7,346.5,0.00,24.0,29.0,"18:58:24",1
"17/08/18","19:10",0.0,27.2,80.6,1002.2,316.4,1.8,4.0,339.2,0.00,23.6,28.8,"19:06:40",1
"17/08/18","19:20",0.0,27.0,81.7,1002.4,332.7,2.3,3.9,358.4,0.00,23.6,28.6,"19:16:08",1
"17/08/18","19:30",0.0,26.8,83.0,1002.6,339.7,2.1,3.5,321.3,0.00,23.7,28.5,"19:27:04",1
"17/08/18","19:40",0.0,26.4,83.8,1002.6,341.2,1.8,3.6,359.0,0.00,23.5,28.4,"19:38:16",1
"17/08/18","19:50",0.0,26.2,84.3,1002.9,337.4,1.7,2.8,348.9,0.00,23.4,28.4,"19:49:04",1
"17/08/18","20:00",0.0,26.1,84.5,1003.1,329.6,1.6,3.2,347.4,0.00,23.3,28.2,"19:52:00",1
"17/08/18","20:10",0.0,26.1,83.6,1003.1,321.7,1.5,3.4,323.8,0.00,23.1,28.3,"20:00:32",1
"17/08/18","20:20",0.0,26.2,84.1,1003.6,344.3,1.2,2.7,343.9,0.00,23.3,28.0,"20:11:20",1
"17/08/18","20:30",0.0,25.9,85.0,1003.6,354.1,0.6,1.4,359.3,0.00,23.2,28.0,"20:24:00",1
"17/08/18","20:40",0.0,25.8,86.2,1004.1,348.7,0.8,1.6,338.1,0.00,23.4,28.0,"20:36:40",1
"17/08/18","20:50",0.0,25.5,87.3,1004.1,339.2,1.2,2.2,329.1,0.00,23.3,27.9,"20:45:12",1
"17/08/18","21:00",0.0,25.4,88.0,1003.8,347.8,0.8,1.7,349.0,0.00,23.3,27.8,"20:52:24",1
"17/08/18","21:10",0.0,25.4,88.4,1003.6,336.6,1.0,2.0,342.5,0.00,23.4,27.6,"21:04:56",1
"17/08/18","21:20",0.0,25.3,88.6,1004.1,345.8,0.8,1.6,344.6,0.00,23.3,27.5,"21:17:20",1
"17/08/18","21:30",0.0,25.3,89.1,1004.3,358.8,0.6,1.4,337.3,0.00,23.4,27.6,"21:23:28",1
"17/08/18","21:40",0.0,25.2,89.3,1004.3,351.5,0.7,1.3,31.0,0.00,23.4,27.6,"21:32:24",1
"17/08/18","21:50",0.0,25.1,89.8,1004.3,334.3,1.0,1.6,337.6,0.00,23.3,27.7,"21:45:52",1
"17/08/18","22:00",0.0,25.0,90.2,1004.3,350.7,0.8,1.4,348.1,0.00,23.3,27.5,"21:52:00",1
"17/08/18","22:10",0.0,25.1,90.4,1004.5,341.8,0.8,2.4,345.5,0.00,23.5,27.3,"22:08:24",1
"17/08/18","22:20",0.0,25.1,90.3,1004.5,343.6,1.3,2.8,348.5,0.00,23.4,27.3,"22:16:24",1
"17/08/18","22:30",0.0,25.1,90.1,1004.5,338.4,1.0,1.9,297.2,0.00,23.4,27.3,"22:28:40",1
"17/08/18","22:40",0.0,25.0,90.1,1004.8,352.2,1.0,1.9,347.9,0.00,23.3,27.1,"22:31:52",1
"17/08/18","22:50",0.0,24.9,90.2,1004.5,347.5,1.2,2.0,353.1,0.00,23.2,27.3,"22:46:56",1
"17/08/18","23:00",0.0,24.7,90.5,1004.5,346.2,1.1,2.0,352.8,0.00,23.1,27.3,"22:59:20",1
"17/08/18","23:10",0.0,24.6,91.0,1004.5,345.7,1.2,2.2,341.0,0.00,23.1,27.2,"23:00:24",1
"17/08/18","23:20",0.0,24.5,91.2,1004.5,344.9,1.3,2.4,339.6,0.00,23.0,27.0,"23:19:36",1
"17/08/18","23:30",0.0,24.5,91.4,1004.8,339.7,1.5,3.1,340.2,0.00,23.0,27.2,"23:20:56",1
"17/08/18","23:40",0.0,24.5,91.5,1005.0,345.1,1.3,3.5,342.8,0.00,23.1,27.1,"23:35:04",1
"17/08/18","23:50",0.0,24.4,91.5,1004.8,344.3,1.0,2.2,343.2,0.00,23.0,27.1,"23:46:56",1
"17/08/18","24:00",0.0,24.3,91.6,1005.0,337.6,0.8,1.8,336.1,0.00,22.9,27.0,"23:52:24",1
